Location: Unspecified
(0.0000°N, 0.0000°E)
Time: 18:49:02
(UTC+02:00)

Tiros 1 despin weight - All Passes

Search period start: 27 August 2016 00:00
Search period end: 06 September 2016 00:00
Orbit: 596 x 645 km, 48.2° (Epoch: 26 August)

Date Brightness Start Highest point End Pass type
(mag) Time Alt. Az. Time Alt. Az. Time Alt. Az.
27 Aug - 00:15:49 10° WNW 00:19:27 24° SW 00:23:02 10° S night (unlit)
27 Aug - 10:42:11 10° SSW 10:46:28 40° SE 10:50:48 10° ENE daylight
27 Aug - 12:25:13 10° W 12:27:57 15° NW 12:30:42 10° NNW daylight
27 Aug - 22:50:43 10° NNW 22:55:13 68° NE 22:59:40 10° SE visible
28 Aug - 10:59:05 10° SW 11:03:38 71° NW 11:08:16 10° NNE daylight
28 Aug - 21:28:26 10° NNE 21:30:56 14° NE 21:33:23 10° E visible
28 Aug - 23:08:08 10° WNW 23:12:24 41° SW 23:16:36 10° SSE visible
29 Aug - 09:35:45 10° S 09:39:24 23° SE 09:43:05 10° ENE daylight
29 Aug - 11:17:02 10° WSW 11:20:51 25° NW 11:24:41 10° N daylight
29 Aug - 21:43:56 10° NNW 21:48:09 38° NE 21:52:21 10° ESE visible
29 Aug - 23:26:56 10° W 23:29:35 15° SW 23:32:14 10° SSW night (unlit)
30 Aug - 09:52:05 10° SSW 09:56:35 65° SE 10:01:09 10° NE daylight
30 Aug - 22:00:48 10° NW 22:05:21 74° SW 22:09:50 10° SE visible
31 Aug - 08:29:57 10° SSE 08:32:19 14° SE 08:34:41 10° E daylight
31 Aug - 10:09:26 10° WSW 10:13:46 43° NW 10:18:07 10° NNE daylight
31 Aug - 20:37:29 10° N 20:41:05 23° NE 20:44:39 10° ESE visible
31 Aug - 22:18:44 10° WNW 22:22:30 26° SW 22:26:16 10° S visible
01 Sep - 08:45:21 10° SSW 08:49:31 36° SE 08:53:45 10° ENE daylight
01 Sep - 10:28:07 10° W 10:30:59 16° NW 10:33:53 10° N daylight
01 Sep - 20:53:45 10° NNW 20:58:17 63° NE 21:02:45 10° SE visible
02 Sep - 09:02:11 10° SW 09:06:41 77° NW 09:11:16 10° NE daylight
02 Sep - 19:31:39 10° NNE 19:33:57 14° NE 19:36:16 10° E daylight
02 Sep - 21:11:05 10° WNW 21:15:27 44° SW 21:19:46 10° SSE visible
03 Sep - 07:39:00 10° S 07:42:27 22° SE 07:45:56 10° E daylight
03 Sep - 09:20:03 10° WSW 09:23:53 27° NW 09:27:46 10° N daylight
03 Sep - 19:46:59 10° NNW 19:51:13 36° NE 19:55:23 10° ESE daylight
03 Sep - 21:29:42 10° W 21:32:39 17° SW 21:35:34 10° S visible
04 Sep - 07:55:12 10° SSW 07:59:38 60° SE 08:04:07 10° NE daylight
04 Sep - 09:40:56 10° NW 09:41:09 10° NW 09:41:24 10° NW daylight
04 Sep - 20:03:47 10° NW 20:08:24 80° SW 20:12:56 10° SE daylight
05 Sep - 06:33:23 10° SSE 06:35:22 13° SE 06:37:21 10° ESE visible
05 Sep - 08:12:29 10° SW 08:16:48 46° NW 08:21:10 10° NNE daylight
05 Sep - 18:40:34 10° N 18:44:07 21° NE 18:47:37 10° E daylight
05 Sep - 20:21:36 10° WNW 20:25:33 28° SW 20:29:28 10° S visible
